visible

Flag for Australia Weather past 2 weeks in Adelaide, South Australia, Australia

Now
68 °F

Rain showers. Partly cloudy.


Feels Like: 68 °F
Forecast: 54 / 69 °F
Wind: 15 mph from North

Location: Adelaide Airport

Current Time: Sep 23, 2014 at 8:00:46 PM

Latest Report: Sep 23, 2014 at 7:30 PM


Visibility: N/A

Pressure: 30.01 "Hg

Humidity: 56%

Dew point: 52 °F

Location of AdelaideLocation

Historic Weather in Adelaide — Graph

°F

Adelaide temperature yesterday

Maximum temperature yesterday: 79 °F (at 1:00 PM)
Minimum temperature yesterday: 46 °F (at 3:00 AM)
Average temperature yesterday: 65 °F

Past Weeks' High & Low Weather Summary

 TemperatureHumidityPressure
High81 °F (Sep 23, 1:30 PM)94% (Sep 9, 1:30 AM)30.42 "Hg (Sep 9, 1:30 AM)
Low41 °F (Sep 13, 5:30 AM)11% (Sep 22, 11:00 AM)29.56 "Hg (Sep 8, 6:30 PM)
Average58 °F63%30.12 "Hg
* Reported Sep 8 6:30 PM — Sep 23 6:30 PM, Adelaide, Weather by CustomWeather, © 2014

Note: Actual official high and low records may vary slightly from our data, if they occured in-between our weather recording intervals... More about our weather records

Advertising

Adelaide weather history for previous 24 hours

 ConditionsComfort  
Time TempWeatherWind HumidityBarometerVisibility
6:30 PM
Sep 23
64 °FScattered showers. Passing clouds.10 mph64%29.95 "HgN/A
6:00 PM66 °FClear.13 mph64%29.95 "Hg10 mi
5:30 PM73 °FSprinkles. Partly sunny.6 mph44%29.95 "HgN/A
5:00 PM73 °FSunny.6 mph41%29.95 "Hg10 mi
4:30 PM73 °FScattered showers. Broken clouds.5 mph41%29.95 "HgN/A
4:00 PM73 °FSprinkles. Scattered clouds.9 mph44%29.95 "HgN/A
3:30 PM73 °FSprinkles. Partly sunny.12 mph44%29.98 "HgN/A
3:00 PM73 °FSprinkles. Partly sunny.17 mph44%29.98 "HgN/A
2:30 PM81 °FSunny.17 mph26%29.98 "Hg10 mi
2:00 PM79 °FSunny.22 mph28%30.01 "Hg10 mi
1:30 PM81 °FSunny.20 mph30%30.01 "Hg10 mi
1:00 PM77 °FSunny.22 mph32%30.01 "Hg10 mi
12:30 PM77 °FSunny.23 mph32%30.04 "Hg10 mi
12:00 PM77 °FSunny.21 mph34%30.07 "Hg10 mi
11:30 AM75 °FPassing clouds.20 mph36%30.07 "HgN/A
11:20 AM75 °FPassing clouds.20 mph36%30.07 "HgN/A
11:00 AM75 °FPassing clouds.22 mph36%30.07 "HgN/A
10:30 AM73 °FPassing clouds.17 mph38%30.09 "HgN/A
10:00 AM72 °FPassing clouds.9 mph41%30.09 "HgN/A
9:30 AM72 °FPassing clouds.14 mph41%30.12 "HgN/A
9:00 AM70 °FSunny.15 mph43%30.12 "Hg10 mi
8:30 AM68 °FSunny.17 mph43%30.15 "Hg10 mi
8:00 AM68 °FSunny.15 mph43%30.15 "Hg10 mi
7:30 AM66 °FSunny.15 mph46%30.15 "Hg10 mi
7:00 AM64 °FSunny.12 mph46%30.12 "Hg10 mi
6:30 AM63 °FSunny.10 mph45%30.12 "Hg10 mi
6:00 AM57 °FSunny.12 mph51%30.12 "Hg10 mi
5:30 AM59 °FClear.9 mph45%30.12 "Hg10 mi
5:00 AM57 °FClear.8 mph48%30.12 "Hg10 mi
4:30 AM57 °FClear.7 mph48%30.12 "Hg10 mi
4:00 AM61 °FClear.10 mph36%30.12 "Hg10 mi
3:30 AM61 °FClear.10 mph29%30.12 "Hg10 mi
2:30 AM64 °FClear.10 mph24%30.12 "Hg10 mi
2:00 AM64 °FClear.10 mph26%30.12 "Hg10 mi
1:30 AM66 °FClear.10 mph21%30.12 "Hg10 mi
1:00 AM64 °FClear.10 mph26%30.15 "Hg10 mi
12:30 AM63 °FClear.10 mph25%30.15 "Hg10 mi
12:00 AM64 °FClear.13 mph24%30.15 "Hg10 mi
11:30 PM
Sep 22
66 °FClear.12 mph19%30.15 "Hg10 mi
11:00 PM64 °FClear.10 mph22%30.15 "Hg10 mi
10:30 PM64 °FClear.10 mph22%30.15 "Hg10 mi
10:00 PM64 °FClear.9 mph21%30.15 "Hg10 mi
9:30 PM66 °FClear.10 mph19%30.15 "Hg10 mi
9:00 PM63 °FClear.10 mph25%30.15 "Hg10 mi
8:30 PM63 °FClear.9 mph27%30.15 "Hg10 mi
8:00 PM64 °FClear.9 mph26%30.15 "Hg10 mi
Weather by CustomWeather, © 2014

See weather overviewHow to use our weather pages